Flag for U.S.A. Weather past 2 weeks in Chesapeake, Virginia, U.S.A.

Now
66 °F

Sunny.


Feels Like: 66 °F
Forecast: 60 / 70 °F
Wind: 9 mph from Northeast

Location: Chesapeake Municipal Airport

Current Time: Sep 23, 2014 at 11:12:53 AM

Latest Report: Sep 23, 2014 at 10:35 AM


Visibility: 10 mi

Pressure: 30.30 "Hg

Humidity: 68%

Dew point: 55 °F

Location of ChesapeakeLocation

Historic Weather in Chesapeake — Graph

°F

Chesapeake temperature yesterday

Maximum temperature yesterday: 81 °F (at 2:15 PM)
Minimum temperature yesterday: 61 °F (at 11:55 PM)
Average temperature yesterday: 74 °F

Past Weeks' High & Low Weather Summary

 TemperatureHumidityPressure
High88 °F (Sep 11, 3:15 PM)100% (Sep 8, 9:55 AM)30.29 "Hg (Sep 8, 9:55 AM)
Low57 °F (Sep 18, 4:55 AM)37% (Sep 22, 11:55 AM)29.73 "Hg (Sep 21, 3:15 PM)
Average72 °F80%30.06 "Hg
* Reported Sep 8 9:15 AM — Sep 23 9:55 AM, Chesapeake, Weather by CustomWeather, © 2014

Note: Actual official high and low records may vary slightly from our data, if they occured in-between our weather recording intervals... More about our weather records

Advertising

Chesapeake weather history for previous 24 hours

 ConditionsComfort  
Time TempWeatherWind HumidityBarometerVisibility
9:55 AM
Sep 23
66 °FSunny.6 mph68%30.29 "Hg10 mi
9:35 AM66 °FSunny.7 mph64%30.29 "Hg10 mi
9:15 AM64 °FSunny.6 mph68%30.29 "Hg10 mi
8:55 AM64 °FSunny.5 mph68%30.29 "Hg10 mi
8:35 AM64 °FSunny.6 mph68%30.28 "Hg10 mi
8:15 AM64 °FSunny.3 mph64%30.28 "Hg10 mi
7:55 AM63 °FSunny.5 mph68%30.26 "Hg10 mi
7:35 AM63 °FClear.5 mph68%30.26 "Hg10 mi
7:15 AM63 °FClear.5 mph68%30.26 "Hg10 mi
6:55 AM64 °FClear.5 mph60%30.25 "Hg10 mi
6:15 AM64 °FClear.8 mph60%30.23 "Hg10 mi
5:55 AM64 °FClear.8 mph64%30.22 "Hg10 mi
5:35 AM64 °FClear.8 mph64%30.22 "Hg10 mi
5:15 AM64 °FClear.10 mph64%30.22 "Hg10 mi
4:55 AM64 °FClear.10 mph64%30.22 "Hg10 mi
4:35 AM66 °FPassing clouds.9 mph60%30.22 "Hg10 mi
4:15 AM66 °FClear.12 mph64%30.21 "Hg10 mi
3:55 AM66 °FClear.13 mph64%30.20 "Hg10 mi
3:35 AM66 °FPassing clouds.10 mph68%30.20 "Hg10 mi
3:15 AM66 °FPassing clouds.3 mph73%30.20 "Hg10 mi
2:55 AM64 °FPassing clouds.No wind78%30.20 "Hg10 mi
2:35 AM64 °FClear.3 mph78%30.18 "Hg10 mi
2:15 AM63 °FClear.No wind88%30.18 "Hg10 mi
1:55 AM63 °FClear.No wind88%30.18 "Hg10 mi
1:35 AM63 °FClear.No wind94%30.18 "Hg10 mi
1:15 AM61 °FClear.No wind94%30.18 "Hg10 mi
12:55 AM61 °FClear.No wind94%30.17 "Hg10 mi
12:35 AM61 °FClear.No wind100%30.17 "Hg10 mi
12:15 AM63 °FClear.No wind94%30.16 "Hg10 mi
11:55 PM
Sep 22
61 °FClear.No wind100%30.16 "Hg10 mi
11:15 PM63 °FClear.No wind94%30.16 "Hg10 mi
10:55 PM63 °FClear.No wind94%30.15 "Hg10 mi
10:35 PM64 °FClear.No wind88%30.15 "Hg10 mi
10:15 PM64 °FClear.No wind88%30.15 "Hg10 mi
9:55 PM64 °FClear.No wind88%30.14 "Hg10 mi
9:35 PM64 °FClear.No wind88%30.14 "Hg10 mi
9:15 PM64 °FClear.No wind88%30.13 "Hg10 mi
8:55 PM64 °FClear.No wind88%30.12 "Hg10 mi
8:35 PM64 °FClear.No wind88%30.11 "Hg10 mi
8:15 PM66 °FClear.No wind83%30.10 "Hg10 mi
7:55 PM66 °FSunny.No wind83%30.09 "Hg10 mi
7:35 PM70 °FSunny.No wind73%30.08 "Hg10 mi
7:15 PM70 °FSunny.No wind73%30.08 "Hg10 mi
6:55 PM72 °FSunny.No wind73%30.06 "Hg10 mi
6:35 PM77 °FSunny.No wind51%30.05 "Hg10 mi
6:15 PM79 °FSunny.No wind48%30.05 "Hg10 mi
5:55 PM79 °FSunny.5 mph45%30.04 "Hg10 mi
5:35 PM79 °FSunny.6 mph45%30.03 "Hg10 mi
5:15 PM79 °FSunny.No wind42%30.03 "Hg10 mi
4:55 PM81 °FScattered clouds.3 mph39%30.03 "Hg10 mi
4:35 PM81 °FSunny.6 mph42%30.03 "Hg10 mi
4:15 PM81 °FSunny.7 mph42%30.02 "Hg10 mi
3:55 PM81 °FSunny.3 mph39%30.02 "Hg10 mi
3:35 PM81 °FSunny.3 mph39%30.01 "Hg10 mi
3:15 PM81 °FSunny.No wind39%30.00 "Hg10 mi
2:55 PM81 °FSunny.5 mph39%30.00 "Hg10 mi
2:35 PM81 °FSunny.6 mph39%30.01 "Hg10 mi
2:15 PM81 °FSunny.6 mph39%30.00 "Hg10 mi
1:55 PM79 °FSunny.5 mph42%30.01 "Hg10 mi
1:15 PM79 °FSunny.3 mph39%30.02 "Hg10 mi
12:55 PM79 °FSunny.8 mph39%30.02 "Hg10 mi
12:35 PM79 °FSunny.5 mph39%30.02 "Hg10 mi
12:15 PM79 °FSunny.3 mph39%30.01 "Hg10 mi
11:55 AM79 °FSunny.9 mph37%30.01 "Hg10 mi
11:35 AM77 °FSunny.8 mph42%30.01 "Hg10 mi
11:15 AM77 °FSunny.8 mph39%30.02 "Hg10 mi
Weather by CustomWeather, © 2014

See weather overviewHow to use our weather pages